TimeAKDT,TemperatureF,Dew PointF,Humidity,Sea Level PressureIn,VisibilityMPH,Wind Direction,Wind SpeedMPH,Gust SpeedMPH,PrecipitationIn,Events,Conditions,WindDirDegrees,DateUTC
12:55 AM,55.0,45.7,71,29.92,10.0,Calm,Calm,-,N/A,,Clear,0,2013-08-06 08:55:00
1:55 AM,51.1,43.3,75,29.93,10.0,Calm,Calm,-,0.00,,Partly Cloudy,0,2013-08-06 09:55:00
2:55 AM,50.0,43.7,79,29.94,10.0,Calm,Calm,-,0.00,,Mostly Cloudy,0,2013-08-06 10:55:00
3:55 AM,48.6,41.7,77,29.94,10.0,Calm,Calm,-,N/A,,Mostly Cloudy,0,2013-08-06 11:55:00
4:55 AM,46.6,41.5,83,29.94,10.0,Calm,Calm,-,N/A,,Clear,0,2013-08-06 12:55:00
6:55 AM,50.4,43.7,78,29.94,10.0,Calm,Calm,-,N/A,,Partly Cloudy,0,2013-08-06 14:55:00
7:55 AM,54.5,46.4,74,29.95,10.0,Calm,Calm,-,N/A,,Clear,0,2013-08-06 15:55:00
8:55 AM,59.9,46.9,62,29.94,10.0,Variable,3.5,-,N/A,,Clear,0,2013-08-06 16:55:00
9:55 AM,65.7,46.6,50,29.93,10.0,North,4.6,-,N/A,,Clear,10,2013-08-06 17:55:00
10:55 AM,73.0,44.6,36,29.92,10.0,SE,10.4,21.9,N/A,,Clear,130,2013-08-06 18:55:00
11:55 AM,75.6,42.3,30,29.91,10.0,SSE,11.5,-,N/A,,Clear,150,2013-08-06 19:55:00
12:55 PM,76.5,41.9,29,29.89,10.0,SE,16.1,-,N/A,,Clear,140,2013-08-06 20:55:00
1:55 PM,77.4,41.2,27,29.88,10.0,SSE,19.6,-,N/A,,Clear,160,2013-08-06 21:55:00
2:55 PM,79.2,40.3,25,29.87,10.0,SE,17.3,-,N/A,,Clear,140,2013-08-06 22:55:00
3:55 PM,80.8,39.2,23,29.84,10.0,SE,8.1,-,N/A,,Clear,130,2013-08-06 23:55:00
4:55 PM,80.6,42.1,25,29.83,10.0,SSE,12.7,-,N/A,,Clear,160,2013-08-07 00:55:00
5:55 PM,80.1,41.5,25,29.82,10.0,ESE,6.9,-,N/A,,Clear,120,2013-08-07 01:55:00
6:55 PM,80.8,42.3,25,29.81,10.0,SE,11.5,-,N/A,,Clear,140,2013-08-07 02:55:00
7:55 PM,78.8,43.3,28,29.80,10.0,Variable,6.9,-,N/A,,Clear,0,2013-08-07 03:55:00
8:55 PM,77.0,43.2,30,29.80,10.0,Calm,Calm,-,N/A,,Clear,0,2013-08-07 04:55:00
9:55 PM,72.9,44.2,36,29.80,10.0,Calm,Calm,-,N/A,,Clear,0,2013-08-07 05:55:00
10:55 PM,65.3,45.7,49,29.81,10.0,Calm,Calm,-,N/A,,Clear,0,2013-08-07 06:55:00
11:55 PM,63.1,45.0,51,29.81,10.0,Calm,Calm,-,N/A,,Clear,0,2013-08-07 07:55:00